sat.trackr.live / text

‹ back to catalog

ONEWEB-0143

NORAD 47289 · 2020-100AH

PAYLOAD ACTIVE UNKNOWN

§ Identity

Operator
Country
UK
Launch date
2020-12-18
Launch site
VOSTO
Launch vehicle
Mass (kg)
RCS (m²)

Purposes: comms

External: N2YO · Heavens-Above · Gunter

§ Orbital elements

Epoch: 2026-05-25T01:35:27.423168Z

Period
109.72 min
Inclination
87.8958°
Eccentricity
0.0001806
Mean motion
13.12442085 rev/d
Perigee alt
1,212.4 km
Apogee alt
1,215.1 km
Semi-major
7,591.9 km
B*
-1.0831e-3
RAAN
355.2653°
Arg perigee
86.4538°
Mean anomaly
273.6797°
Rev number
26,161

§ Raw data

ONEWEB-01431 47289U 20100AH  26145.06628962 -.00000377  00000+0 -10831-2 0  99932 47289  87.8958 355.2653 0001806  86.4538 273.6797 13.12442085261612

JSON: /api/v1/satellites/47289 · /tle

For live sub-satellite position, see the globe view (requires WebGL).

§ Visibility from observer

Set your observer location to see the next 7 days of passes ≥ 10°. The values pass through the URL so the page stays shareable.

No JS? Fill the form by hand. The geolocation button needs JavaScript.